DW9996 Weather Reports


Display with metric or nautical units.
time (UTC)temp
F
wind
direction
speed
MPH
gust
MPH
rain 1hr
in
rain 24hr
in
rain mn
in
humidity
%
barometer
mb
20260508231525 75 329 10.0 16.0 0.00 0.00 0.00 19 1004.1
20260508230023 75 304 9.0 20.0 0.00 0.00 0.00 18 1004.2
20260508224528 75 302 7.0 16.0 0.00 0.00 0.00 18 1004.3
20260508223035 75 309 8.0 19.0 0.00 0.00 0.00 19 1004.3
20260508221521 75 349 9.0 20.0 0.00 0.00 0.00 18 1004.4
20260508220025 76 298 10.0 19.0 0.00 0.00 0.00 19 1004.4
20260508214519 76 297 7.0 16.0 0.00 0.00 0.00 18 1004.5
20260508213017 75 269 11.0 21.0 0.00 0.00 0.00 17 1004.5
20260508211516 76 311 10.0 19.0 0.00 0.00 0.00 19 1004.5
20260508210015 76 309 9.0 19.0 0.00 0.00 0.00 20 1004.6
20260508204514 74 311 7.0 16.0 0.00 0.00 0.00 20 1004.5
20260508203010 73 294 5.0 12.0 0.00 0.00 0.00 25 1004.8
20260508201514 73 266 7.0 14.0 0.00 0.00 0.00 24 1005.0
20260508200008 74 263 10.0 19.0 0.00 0.00 0.00 23 1005.1
20260508194505 73 295 6.0 19.0 0.00 0.00 0.00 25 1005.1
20260508193004 74 268 8.0 19.0 0.00 0.00 0.00 24 1005.4
20260508191501 73 231 7.0 17.0 0.00 0.00 0.00 26 1005.7
20260508190058 73 297 9.0 17.0 0.00 0.00 0.00 27 1005.9
20260508184557 72 223 10.0 20.0 0.00 0.00 0.00 31 1006.1
20260508183054 72 254 5.0 13.0 0.00 0.00 0.00 32 1006.4
20260508181554 71 301 4.0 11.0 0.00 0.00 0.00 34 1006.6
20260508180055 71 229 6.0 14.0 0.00 0.00 0.00 34 1006.9
20260508174550 70 196 7.0 15.0 0.00 0.00 0.00 38 1007.1
20260508173044 69 207 6.0 15.0 0.00 0.00 0.00 39 1007.2
20260508171542 68 238 6.0 16.0 0.00 0.00 0.00 39 1007.5
20260508170040 67 252 7.0 18.0 0.00 0.00 0.00 43 1007.7
20260508164535 67 234 8.0 17.0 0.00 0.00 0.00 42 1007.9
20260508163036 66 238 9.0 15.0 0.00 0.00 0.00 45 1008.0
20260508161532 64 227 7.0 13.0 0.00 0.00 0.00 49 1008.2
20260508160025 63 219 7.0 13.0 0.00 0.00 0.00 50 1008.3
20260508154522 62 224 8.0 14.0 0.00 0.00 0.00 52 1008.6
20260508153017 60 232 6.0 11.0 0.00 0.00 0.00 56 1008.8
20260508151515 58 229 6.0 13.0 0.00 0.00 0.00 60 1009.0
20260508150018 56 220 6.0 13.0 0.00 0.00 0.00 60 1009.1
20260508144509 56 233 6.0 12.0 0.00 0.00 0.00 59 1009.2
20260508143010 55 221 7.0 12.0 0.00 0.00 0.00 61 1009.4
20260508141503 53 188 4.0 6.0 0.00 0.00 0.00 54 1009.6
20260508140107 52 169 3.0 4.0 0.00 0.00 0.00 54 1009.6
20260508134604 49 221 0.0 2.0 0.00 0.00 0.00 57 1009.7
20260508133055 47 221 0.0 2.0 0.00 0.00 0.00 62 1009.9
20260508131554 45 221 0.0 2.0 0.00 0.00 0.00 67 1010.0
20260508130052 42 257 0.0 2.0 0.00 0.00 0.00 67 1009.7
20260508124553 40 257 1.0 3.0 0.00 0.00 0.00 67 1009.8
20260508123052 40 257 0.0 3.0 0.00 0.00 0.00 65 1009.6
20260508121551 40 295 0.0 0.0 0.00 0.00 0.00 66 1009.7
20260508120051 39 308 1.0 4.0 0.00 0.00 0.00 68 1009.7
20260508114603 39 309 1.0 3.0 0.00 0.00 0.00 68 1009.7
20260508113051 40 296 1.0 5.0 0.00 0.00 0.00 66 1009.4
20260508111600 41 308 2.0 4.0 0.00 0.00 0.00 65 1009.6
20260508110045 40 308 3.0 5.0 0.00 0.00 0.00 67 1009.6
20260508104545 38 303 3.0 4.0 0.00 0.00 0.00 70 1009.7
20260508103043 37 286 1.0 5.0 0.00 0.00 0.00 70 1009.7
20260508101541 38 294 1.0 3.0 0.00 0.00 0.00 69 1009.7
20260508100038 38 313 2.0 4.0 0.00 0.00 0.00 67 1009.6
20260508094536 38 259 2.0 3.0 0.00 0.00 0.00 66 1009.7
20260508093035 39 259 1.0 3.0 0.00 0.00 0.00 67 1009.6
20260508091538 40 253 1.0 2.0 0.00 0.00 0.00 65 1009.5
20260508090030 41 253 1.0 4.0 0.00 0.00 0.00 65 1009.6
20260508084528 40 234 2.0 6.0 0.00 0.00 0.00 67 1009.6
20260508083025 41 296 2.0 5.0 0.00 0.00 0.00 66 1009.4
20260508081522 43 263 5.0 10.0 0.00 0.00 0.00 65 1009.4
20260508080018 45 301 2.0 5.0 0.00 0.00 0.00 62 1009.2
20260508074518 44 254 1.0 3.0 0.00 0.00 0.00 64 1009.1
20260508073018 45 254 1.0 3.0 0.00 0.00 0.00 64 1009.1
20260508071513 47 311 1.0 4.0 0.00 0.00 0.00 60 1009.0
20260508070010 47 302 1.0 4.0 0.00 0.00 0.00 61 1008.9
20260508064508 47 273 1.0 3.0 0.00 0.00 0.00 63 1008.9
20260508063006 48 265 2.0 4.0 0.00 0.00 0.00 61 1008.9
20260508061505 48 304 2.0 3.0 0.00 0.00 0.00 62 1008.8
20260508060059 50 291 2.0 4.0 0.00 0.00 0.00 59 1008.8
20260508054559 52 298 2.0 7.0 0.00 0.00 0.00 57 1008.8
20260508053106 53 291 2.0 6.0 0.00 0.00 0.00 55 1008.8
20260508051606 54 298 1.0 4.0 0.00 0.00 0.00 55 1008.7
20260508050058 55 300 2.0 4.0 0.00 0.00 0.00 54 1008.8
20260508044607 57 284 3.0 6.0 0.00 0.00 0.00 51 1008.9
20260508043056 58 283 3.0 8.0 0.00 0.00 0.00 48 1008.7
20260508041556 59 275 5.0 11.0 0.00 0.00 0.00 47 1008.6
20260508040056 57 288 5.0 10.0 0.00 0.00 0.00 50 1008.6
20260508034555 56 295 3.0 5.0 0.00 0.00 0.00 51 1008.6
20260508033100 57 288 2.0 4.0 0.00 0.00 0.00 50 1008.5
20260508031556 59 285 2.0 6.0 0.00 0.00 0.00 46 1008.4
20260508030054 61 263 4.0 8.0 0.00 0.00 0.00 44 1008.1
20260508024603 61 309 4.0 7.0 0.00 0.00 0.00 43 1008.1
20260508023055 60 286 2.0 4.0 0.00 0.00 0.00 42 1007.8
20260508021555 62 307 1.0 6.0 0.00 0.00 0.00 36 1007.6
20260508020053 63 304 2.0 4.0 0.00 0.00 0.00 34 1007.3
20260508014552 65 330 3.0 9.0 0.00 0.00 0.00 31 1007.2
20260508013051 66 350 5.0 12.0 0.00 0.00 0.00 30 1007.1
20260508011605 65 346 5.0 9.0 0.00 0.00 0.00 31 1006.9
20260508010049 67 315 4.0 9.0 0.00 0.00 0.00 30 1007.0
20260508004556 69 355 8.0 13.0 0.00 0.00 0.00 27 1006.9
20260508003049 70 317 6.0 11.0 0.00 0.00 0.00 27 1006.9
20260508001551 69 284 7.0 16.0 0.00 0.00 0.00 28 1006.8
20260508000047 69 332 9.0 16.0 0.00 0.00 0.00 27 1007.0
20260507234553 69 323 9.0 14.0 0.00 0.00 0.00 27 1006.9
20260507233047 69 300 7.0 14.0 0.00 0.00 0.00 28 1006.9